ATLAS 5 CENTAUR DEB, 44675

Orbit data source: Space-Track

ATLAS 5 CENTAUR DEB, 44675 is space debris in HEO originally from a launch on Wed, 17 Oct 2018 UTC launched from the Air Force Eastern Test Range (AFETR). Debris objects in space refer to the collection of defunct objects orbiting the Earth. Examples of debris include non-operational satellites, rocket bodies, and fragments generated from explosions, collisions, or faulty payload assembly.

Loading next visibility...
Identifier
44675, 2018-079AM
Orbit
HEO
Country
Flag of USUS
Related business
Flag of USUnited Launch Alliance/Lockheed Martin (US)
Manufacturer
ULA Decatur
Mission
Spacecraft
Bus & Motor
Unknown
Mass
Unknown
Launch date (UTC)
2018-10-17 (8 years ago)
Launch vehicle
Unknown
Launch site
Air Force Eastern Test Range (AFETR)
Object type
Payload
Rocket body
Debris
Shape & HBR
Unknown shape, 1.1 m
Radar Cross Section
RCS unknown

Expand to show TLE details & history
Last TLE update: 22 hours ago

TLE from 22 hours ago
0 ATLAS 5 CENTAUR DEB
1 44675U 18079AM  26125.96396201 -.00000124  00000-0  00000-0 0  9991
2 44675  13.3783  41.3337 4668460 300.3962  21.7002  1.80471369 46192
Epoch: 2026-05-05T23:08Z
TLE epoch observation values (Epoch: 2026-05-05T23:08:06.317Z)
Latitude
0.00003°
Longitude
-169.59432°
Altitude
11,657.078 km
Speed
5.497 km/s
True Right ascension
02h 45m 03s
True Declination
0° 00' 00"
Sunlit
Object was in daylight at epoch
Visualization orbit readout
Latitude
Unknown
Longitude
Unknown
Altitude
Unknown
Speed
Unknown
Apparent Right ascension
Unknown
Apparent Declination
Unknown
Sunlit
N/A
Visualization observer readout
Local Sidereal Time
05:33:30
Azimuth
Unknown
Elevation
Unknown
Doppler factor
Unknown
Orbital elements
Apogee altitude
35,425.34 km
Perigee altitude
8,816.158 km
Semi-major axis
28,498.886 km
Eccentricity
0.46685
Inclination
13.3783°
RAAN
41.3337°
Arg. of periapsis
300.3962°
True anomaly
59.83554°
Mean anomaly
21.7002°
Eccentric anomaly
38.26565°
Mean motion
0.45113 °/min
Orbital period
798 mins
BSTAR
0
Loading maneuver chart data...
Computing Atmospheric mass density...

Documentation

Showing up to 5 results
|